Location: Kampong Paya Jaras Dalam
(3.1833°N, 101.5500°E)
Time: 05:14:45
(UTC+00:00)

H-2A R/B - Pass Details

Date: 15 May 2026
Orbit: 516 x 529 km, 98.2° (Epoch: 7 June)

Event Time Altitude Azimuth Distance (km) Brightness Sun altitude
Rises 22:11:20 0° 13° (NNE) 2,637 7.3 -12.8°
Reaches altitude 10° 22:13:26 10° 14° (NNE) 1,749 6.4 -12.3°
Maximum altitude 22:17:12 82° 101° (E) 528 3.3 -11.4°
Drops below altitude 10° 22:20:58 10° 189° (S) 1,748 5.6 -10.5°
Sets 22:23:04 0° 190° (S) 2,635 6.5 -10.1°
